AUA9PV LGAV-LOWW

Flight info

Callsign AUA9PV
Flight time N/A
Altitude 36000
Route KOR UL613 YNN UL604 DIMIS DCT RETRA DCT GACMO DCT LOPKU DCT BOSNA DCT OBUTI OBUTI2W
Aircraft A320/M-SDE3FGHIRWY/LB1

Departure

Time 2026-05-06 14:20
Airport Athens Eleftherios Venizelos International Airport (LGAV)

Arrival

Time N/A
Airport Vienna International Airport (LOWW)
Time Latitude Longitude Altitude Speed Heading
2026-05-06 13:48 37.93794 23.95020 301 ft 0 kts 306°
2026-05-06 14:11 37.93780 23.95043 302 ft 4 kts 310°
2026-05-06 14:11 37.93762 23.95067 304 ft 4 kts 322°
2026-05-06 14:11 37.93739 23.95082 300 ft 4 kts 358°
2026-05-06 14:12 37.93726 23.95080 300 ft 0 kts 37°
2026-05-06 14:14 37.93727 23.95081 300 ft 1 kts 37°
2026-05-06 14:14 37.93751 23.95104 300 ft 7 kts 38°
2026-05-06 14:15 37.93807 23.95159 302 ft 13 kts 37°
2026-05-06 14:15 37.93870 23.95259 301 ft 16 kts 69°
2026-05-06 14:15 37.93874 23.95378 300 ft 14 kts 128°
2026-05-06 14:15 37.93865 23.95485 298 ft 14 kts 44°
2026-05-06 14:16 37.93937 23.95554 299 ft 12 kts 37°
2026-05-06 14:16 37.94000 23.95614 300 ft 11 kts 37°
2026-05-06 14:16 37.94064 23.95676 298 ft 13 kts 37°
2026-05-06 14:16 37.94150 23.95757 297 ft 17 kts 37°
2026-05-06 14:17 37.94257 23.95861 299 ft 22 kts 38°
2026-05-06 14:17 37.94387 23.95990 299 ft 26 kts 38°
2026-05-06 14:17 37.94535 23.96121 301 ft 25 kts 36°
2026-05-06 14:17 37.94668 23.96249 302 ft 23 kts 37°
2026-05-06 14:18 37.94791 23.96363 301 ft 21 kts 37°
2026-05-06 14:18 37.94910 23.96470 303 ft 21 kts 35°
2026-05-06 14:18 37.95023 23.96581 303 ft 20 kts 36°
2026-05-06 14:18 37.95133 23.96688 304 ft 20 kts 36°
2026-05-06 14:19 37.95241 23.96790 304 ft 19 kts 37°
2026-05-06 14:19 37.95294 23.96897 306 ft 13 kts 109°
2026-05-06 14:19 37.95244 23.96986 308 ft 11 kts 128°
2026-05-06 14:19 37.95166 23.97000 312 ft 16 kts 213°
2026-05-06 14:20 37.94968 23.96808 307 ft 67 kts 217°
2026-05-06 14:20 37.94417 23.96292 292 ft 127 kts 217°
2026-05-06 14:20 37.93584 23.95497 363 ft 163 kts 217°
2026-05-06 14:20 37.92687 23.94733 1013 ft 156 kts 209°
2026-05-06 14:21 37.91720 23.94065 1541 ft 160 kts 207°
2026-05-06 14:21 37.90682 23.93378 1911 ft 176 kts 207°
2026-05-06 14:21 37.89533 23.92615 2205 ft 197 kts 208°
2026-05-06 14:21 37.88246 23.91752 2470 ft 222 kts 208°
2026-05-06 14:22 37.86827 23.90793 2906 ft 239 kts 208°
2026-05-06 14:22 37.85348 23.89789 3686 ft 244 kts 210°
2026-05-06 14:22 37.83843 23.88762 4466 ft 248 kts 210°
2026-05-06 14:22 37.82370 23.87543 5014 ft 261 kts 227°
2026-05-06 14:23 37.81411 23.85600 5703 ft 266 kts 253°
2026-05-06 14:23 37.81273 23.83266 6466 ft 270 kts 281°
2026-05-06 14:23 37.81830 23.80992 7256 ft 272 kts 289°
2026-05-06 14:23 37.82456 23.78757 8032 ft 275 kts 290°
2026-05-06 14:24 37.83109 23.76467 8860 ft 277 kts 290°
2026-05-06 14:24 37.83767 23.74167 9648 ft 280 kts 290°
2026-05-06 14:24 37.84435 23.71825 10299 ft 287 kts 291°
2026-05-06 14:24 37.85134 23.69351 10522 ft 310 kts 291°
2026-05-06 14:25 37.85883 23.66681 10673 ft 333 kts 290°
2026-05-06 14:25 37.86676 23.63842 11004 ft 347 kts 290°
2026-05-06 14:25 37.87483 23.60935 11613 ft 352 kts 290°
2026-05-06 14:25 37.88298 23.57994 12274 ft 356 kts 290°
2026-05-06 14:26 37.89121 23.55025 12931 ft 359 kts 290°
2026-05-06 14:26 37.89951 23.52027 13615 ft 362 kts 291°
2026-05-06 14:26 37.90784 23.49011 14245 ft 364 kts 291°
2026-05-06 14:26 37.91626 23.45963 14855 ft 367 kts 291°
2026-05-06 14:27 37.92468 23.42912 15484 ft 368 kts 291°
2026-05-06 14:27 37.93318 23.39837 16074 ft 371 kts 291°
2026-05-06 14:27 37.94171 23.36746 16668 ft 373 kts 291°
2026-05-06 14:27 37.95030 23.33633 17270 ft 375 kts 291°
2026-05-06 14:28 37.95891 23.30506 17866 ft 377 kts 291°
2026-05-06 14:28 37.96754 23.27355 18445 ft 379 kts 291°
2026-05-06 14:28 37.97609 23.24222 18936 ft 382 kts 291°
2026-05-06 14:28 37.98480 23.21032 19429 ft 384 kts 291°
2026-05-06 14:29 37.99357 23.17825 19933 ft 386 kts 291°
2026-05-06 14:29 38.00244 23.14582 20412 ft 389 kts 291°
2026-05-06 14:29 38.01133 23.11341 20899 ft 390 kts 291°
2026-05-06 14:29 38.02025 23.08081 21332 ft 393 kts 291°
2026-05-06 14:30 38.02924 23.04784 21747 ft 396 kts 291°
2026-05-06 14:30 38.03824 23.01471 22198 ft 399 kts 291°
2026-05-06 14:30 38.04720 22.98172 22615 ft 401 kts 291°
2026-05-06 14:30 38.05644 22.94771 23047 ft 404 kts 291°
2026-05-06 14:31 38.06560 22.91389 23456 ft 406 kts 291°
2026-05-06 14:31 38.07470 22.88026 23805 ft 409 kts 291°
2026-05-06 14:31 38.08395 22.84603 24137 ft 411 kts 291°
2026-05-06 14:31 38.09321 22.81169 24468 ft 412 kts 291°
2026-05-06 14:32 38.10253 22.77717 24781 ft 414 kts 290°
2026-05-06 14:32 38.11316 22.74310 25079 ft 415 kts 297°
2026-05-06 14:32 38.12802 22.71173 25376 ft 416 kts 307°
2026-05-06 14:32 38.14702 22.68395 25678 ft 418 kts 316°
2026-05-06 14:33 38.16848 22.65900 25974 ft 419 kts 317°
2026-05-06 14:33 38.19012 22.63397 26265 ft 421 kts 317°
2026-05-06 14:33 38.21182 22.60878 26549 ft 423 kts 317°
2026-05-06 14:33 38.23359 22.58345 26832 ft 425 kts 317°
2026-05-06 14:34 38.25540 22.55799 27132 ft 426 kts 316°
2026-05-06 14:34 38.27724 22.53248 27407 ft 427 kts 316°
2026-05-06 14:34 38.29913 22.50685 27668 ft 429 kts 316°
2026-05-06 14:34 38.32112 22.48107 27916 ft 430 kts 316°
2026-05-06 14:35 38.34291 22.45556 28150 ft 432 kts 316°
2026-05-06 14:35 38.36537 22.42924 28329 ft 435 kts 316°
2026-05-06 14:35 38.38744 22.40339 28530 ft 437 kts 316°
2026-05-06 14:35 38.40983 22.37713 28742 ft 438 kts 316°
2026-05-06 14:36 38.43232 22.35074 28954 ft 440 kts 316°
2026-05-06 14:36 38.45482 22.32428 29247 ft 439 kts 316°
2026-05-06 14:36 38.47726 22.29783 29528 ft 439 kts 316°
2026-05-06 14:36 38.49969 22.27142 29847 ft 438 kts 316°
2026-05-06 14:37 38.52210 22.24503 30162 ft 437 kts 316°
2026-05-06 14:37 38.54440 22.21873 30428 ft 436 kts 316°
2026-05-06 14:37 38.56662 22.19247 30724 ft 435 kts 315°
2026-05-06 14:37 38.58881 22.16627 30990 ft 433 kts 316°
2026-05-06 14:38 38.61087 22.14019 31208 ft 432 kts 315°
2026-05-06 14:38 38.63297 22.11406 31481 ft 432 kts 315°
2026-05-06 14:38 38.65501 22.08797 31735 ft 431 kts 315°
2026-05-06 14:38 38.67694 22.06197 32013 ft 430 kts 315°
2026-05-06 14:39 38.69890 22.03590 32290 ft 429 kts 315°
2026-05-06 14:39 38.72077 22.00989 32521 ft 429 kts 315°
2026-05-06 14:39 38.74259 21.98392 32776 ft 427 kts 315°
2026-05-06 14:39 38.76432 21.95802 33051 ft 426 kts 314°
2026-05-06 14:40 38.78576 21.93244 33311 ft 425 kts 314°
2026-05-06 14:40 38.80740 21.90659 33586 ft 424 kts 314°
2026-05-06 14:40 38.82895 21.88081 33870 ft 423 kts 314°
2026-05-06 14:40 38.85041 21.85512 34140 ft 421 kts 314°
2026-05-06 14:41 38.87183 21.82947 34360 ft 421 kts 314°
2026-05-06 14:41 38.89320 21.80386 34582 ft 420 kts 314°
2026-05-06 14:41 38.91458 21.77824 34795 ft 420 kts 315°
2026-05-06 14:41 38.93590 21.75271 35003 ft 419 kts 315°
2026-05-06 14:42 38.95723 21.72716 35188 ft 419 kts 315°
2026-05-06 14:42 38.97853 21.70161 35370 ft 419 kts 314°
2026-05-06 14:42 38.99982 21.67600 35556 ft 419 kts 314°
2026-05-06 14:42 39.02106 21.65041 35709 ft 419 kts 314°
2026-05-06 14:43 39.04235 21.62478 35871 ft 419 kts 314°
2026-05-06 14:43 39.06364 21.59910 36037 ft 419 kts 315°
2026-05-06 14:43 39.10619 21.54771 36094 ft 420 kts 314°
2026-05-06 14:44 39.14884 21.49615 36089 ft 420 kts 314°
2026-05-06 14:45 39.21282 21.41872 36091 ft 420 kts 314°
2026-05-06 14:45 39.25535 21.36695 36095 ft 420 kts 314°
2026-05-06 14:46 39.29792 21.31513 36098 ft 421 kts 314°
2026-05-06 14:46 39.34049 21.26332 36102 ft 420 kts 314°
2026-05-06 14:47 39.38277 21.21166 36113 ft 420 kts 314°
2026-05-06 14:47 39.42526 21.15974 36116 ft 420 kts 314°
2026-05-06 14:48 39.46780 21.10771 36104 ft 421 kts 314°
2026-05-06 14:48 39.51022 21.05552 36101 ft 421 kts 314°
2026-05-06 14:49 39.55265 21.00333 36113 ft 421 kts 313°
2026-05-06 14:49 39.58791 20.95993 36100 ft 421 kts 313°
2026-05-06 14:50 39.63038 20.90762 36100 ft 421 kts 313°
2026-05-06 14:50 39.67278 20.85522 36111 ft 421 kts 313°
2026-05-06 14:51 39.71975 20.80959 36109 ft 427 kts 329°
2026-05-06 14:51 39.77375 20.77683 36104 ft 429 kts 331°
2026-05-06 14:52 39.82788 20.74407 36100 ft 429 kts 331°
2026-05-06 14:52 39.88195 20.71108 36104 ft 429 kts 331°
2026-05-06 14:53 39.93609 20.67814 36101 ft 429 kts 331°
2026-05-06 14:53 39.99014 20.64528 36090 ft 429 kts 331°
2026-05-06 14:54 40.04414 20.61218 36092 ft 428 kts 331°
2026-05-06 14:54 40.09791 20.57959 36090 ft 429 kts 332°
2026-05-06 14:55 40.15275 20.54862 36094 ft 430 kts 333°
2026-05-06 14:55 40.20789 20.51817 36088 ft 429 kts 333°
2026-05-06 14:56 40.26276 20.48742 36088 ft 429 kts 333°
2026-05-06 14:56 40.31739 20.45640 36077 ft 428 kts 332°
2026-05-06 14:57 40.37209 20.42516 36082 ft 429 kts 332°
2026-05-06 14:57 40.42691 20.39382 36079 ft 430 kts 332°
2026-05-06 14:58 40.48187 20.36247 36071 ft 431 kts 333°
2026-05-06 14:58 40.53680 20.33101 36074 ft 431 kts 333°
2026-05-06 14:59 40.59174 20.29957 36080 ft 431 kts 333°
2026-05-06 14:59 40.64670 20.26811 36079 ft 431 kts 333°
2026-05-06 15:00 40.70178 20.23645 36081 ft 432 kts 333°
2026-05-06 15:00 40.75650 20.20484 36083 ft 432 kts 333°
2026-05-06 15:01 40.81155 20.17316 36080 ft 432 kts 333°
2026-05-06 15:01 40.86665 20.14139 36089 ft 432 kts 333°
2026-05-06 15:02 40.92170 20.10948 36084 ft 432 kts 333°
2026-05-06 15:02 40.97682 20.07738 36084 ft 433 kts 333°
2026-05-06 15:03 41.03200 20.04525 36072 ft 433 kts 333°
2026-05-06 15:03 41.08727 20.01306 36083 ft 434 kts 333°
2026-05-06 15:04 41.14213 19.98103 36083 ft 434 kts 332°
2026-05-06 15:04 41.19740 19.94876 36085 ft 434 kts 333°
2026-05-06 15:05 41.25265 19.91644 36085 ft 434 kts 332°
2026-05-06 15:05 41.30788 19.88405 36089 ft 434 kts 332°
2026-05-06 15:06 41.36311 19.85164 36084 ft 434 kts 332°
2026-05-06 15:06 41.41835 19.81921 36086 ft 434 kts 332°
2026-05-06 15:07 41.47363 19.78659 36091 ft 434 kts 332°
2026-05-06 15:07 41.52880 19.75396 36105 ft 434 kts 332°
2026-05-06 15:08 41.58397 19.72131 36096 ft 434 kts 332°
2026-05-06 15:08 41.63912 19.68848 36097 ft 434 kts 332°
2026-05-06 15:09 41.69426 19.65571 36093 ft 434 kts 332°
2026-05-06 15:09 41.74905 19.62311 36106 ft 434 kts 332°
2026-05-06 15:10 41.80421 19.59021 36098 ft 434 kts 332°
2026-05-06 15:10 41.85935 19.55726 36099 ft 434 kts 332°
2026-05-06 15:11 41.91450 19.52429 36099 ft 434 kts 332°
2026-05-06 15:11 41.96963 19.49126 36108 ft 434 kts 331°
2026-05-06 15:12 42.02468 19.45811 36101 ft 434 kts 332°
2026-05-06 15:12 42.07975 19.42484 36095 ft 434 kts 332°
2026-05-06 15:13 42.13489 19.39155 36088 ft 434 kts 332°
2026-05-06 15:13 42.19011 19.35816 36098 ft 435 kts 332°
2026-05-06 15:14 42.24373 19.32220 36093 ft 431 kts 324°
2026-05-06 15:14 42.29464 19.27947 36091 ft 431 kts 324°
2026-05-06 15:15 42.34570 19.23679 36081 ft 430 kts 324°
2026-05-06 15:15 42.39665 19.19419 36090 ft 430 kts 324°
2026-05-06 15:16 42.44757 19.15138 36085 ft 431 kts 324°
2026-05-06 15:16 42.49848 19.10836 36083 ft 432 kts 324°
2026-05-06 15:17 42.54947 19.06523 36081 ft 432 kts 324°
2026-05-06 15:17 42.60063 19.02201 36085 ft 433 kts 324°
2026-05-06 15:18 42.65175 18.97880 36093 ft 432 kts 324°
2026-05-06 15:18 42.70280 18.93540 36084 ft 433 kts 323°
2026-05-06 15:19 42.75379 18.89192 36080 ft 433 kts 323°
2026-05-06 15:19 42.80481 18.84843 36082 ft 433 kts 323°
2026-05-06 15:20 42.85585 18.80484 36082 ft 433 kts 323°
2026-05-06 15:20 42.90654 18.76148 36070 ft 433 kts 323°